Content
SEND FEEDBACK

Daily
Averages
Monthly
Summary
United Kingdom

LONDON, ENGLAND


Home > Europe > United Kingdom > England
Elevation: 203 feet     Latitude: 51 09N     Longitude: 000 11W

WEATHER
 
SELECT A DAY
Number of Records: 294,722;   Date Range: 7/1/96 - 9/22/14
 
SHARE

PRINT THIS DATA

[ ← Previous Day ]
WEATHER ALMANAC - AUGUST 25, 2013
[ Next Day → ]
[ °C ]   °F
Weather ElementAverageHighLow
Temperature62.2 °F71.6 °F (2:20 pm)53.6 °F (4:20 am)
Dewpoint56.8 °F60.8 °F (10:50 am)51.8 °F (3:50 am)
Humidity83.7 %100 % (8:20 am)60 % (2:20 pm)
Barometer29.92 in30.04 in (9:50 pm)29.83 in (3:50 am)
Wind Speed10.4 mph18.4 mph (3:50 pm)
Wind Gust29.9 mph (11:50 am)
Weather ElementAverage
Visibility5.7 mi
Wind DirectionSSE (165.4 °)

Weather ElementTotal
Precipitation---
Heating Degree Days2.4 (Base 65)
Growing Degree Days12.6 (Base 50)
Averaged from 46 records on August 25, 2013
WEATHER CONDITIONS BREAKOUT
WIND DIRECTION BREAKOUT
WEATHER BY HOUR - AUGUST 25, 2013
[ °C ]   °F
Local TimeTemperatureDewpointHumidityBarometerVisibilityWind DirectionWind SpeedGust SpeedPrecipitationEventsConditions
1:20 AM57.2 °F55.4 °F94 %29.86 in6.2 miNW (310°)8.1 mphRainLight Rain
1:50 AM57.2 °F55.4 °F94 %29.86 in6.2 miNW (320°)9.2 mphRainLight Rain
2:20 AM57.2 °F53.6 °F88 %29.86 in6.2 miNW (320°)11.5 mphRainLight Rain
2:50 AM55.4 °F53.6 °F94 %29.86 in6.2 miNW (320°)11.5 mphRainLight Rain
3:20 AM55.4 °F53.6 °F94 %29.86 in6.2 miWNW (300°)10.4 mphRainLight Rain
3:50 AM55.4 °F51.8 °F88 %29.83 in6.2 miNW (320°)11.5 mphRainLight Rain
4:20 AM53.6 °F51.8 °F94 %29.83 in6.2 miNNW (330°)9.2 mphRainRain
4:50 AM53.6 °F51.8 °F94 %29.83 in6.2 miNW (320°)8.1 mphRainLight Rain
5:20 AM53.6 °F51.8 °F94 %29.83 in6.2 miNW (320°)10.4 mphRainLight Rain
5:50 AM53.6 °F51.8 °F94 %29.83 in6.2 miNW (310°)9.2 mphRainLight Rain
6:20 AM55.4 °F53.6 °F94 %29.83 in5.6 miNW (310°)9.2 mphRainLight Rain
6:50 AM55.4 °F53.6 °F94 %29.83 in4.3 miNW (320°)9.2 mphRainLight Rain
7:20 AM55.4 °F53.6 °F94 %29.83 in6.2 miNW (320°)9.2 mphRainLight Rain
7:50 AM55.4 °F53.6 °F94 %29.83 in4.3 miNNW (330°)10.4 mphRainLight Rain
8:20 AM55.4 °F55.4 °F100 %29.86 in5.0 miNNW (330°)9.2 mphRainLight Rain
8:50 AM57.2 °F55.4 °F94 %29.86 in4.3 miNNW (330°)9.2 mphMostly Cloudy
9:20 AM57.2 °F57.2 °F100 %29.86 in5.0 miNNW (340°)6.9 mphMostly Cloudy
9:50 AM59.0 °F57.2 °F94 %29.86 in5.6 miVariable9.2 mphMostly Cloudy
10:20 AM60.8 °F59.0 °F94 %29.89 in4.3 miNorth (350°)9.2 mph20.7 mphMostly Cloudy
10:50 AM62.6 °F60.8 °F94 %29.89 in4.3 miNorth (360°)11.5 mphMostly Cloudy
11:20 AM62.6 °F60.8 °F94 %29.89 in4.3 miNorth (360°)10.4 mphMostly Cloudy
11:50 AM64.4 °F60.8 °F88 %29.89 in4.3 miNNE (20°)10.4 mph29.9 mphMostly Cloudy
12:20 PM66.2 °F60.8 °F83 %29.89 in5.6 miNNE (30°)12.7 mphMostly Cloudy
12:50 PM69.8 °F60.8 °F73 %29.89 in6.2 miNE (50°)13.8 mphScattered Clouds
1:20 PM69.8 °F59.0 °F68 %29.92 in6.2 miENE (60°)15.0 mphScattered Clouds
1:50 PM69.8 °F57.2 °F64 %29.92 in6.2 miNE (40°)15.0 mphPartly Cloudy
2:20 PM71.6 °F57.2 °F60 %29.92 in6.2 miNE (40°)16.1 mphMostly Cloudy
2:50 PM71.6 °F57.2 °F60 %29.92 in6.2 miNE (40°)16.1 mphScattered Clouds
3:20 PM71.6 °F57.2 °F60 %29.92 in6.2 miNE (40°)15.0 mphScattered Clouds
3:50 PM71.6 °F57.2 °F60 %29.95 in6.2 miNE (50°)18.4 mphPartly Cloudy
4:20 PM71.6 °F57.2 °F60 %29.95 in6.2 miNE (50°)15.0 mphScattered Clouds
4:50 PM71.6 °F59.0 °F64 %29.95 in6.2 miNE (50°)13.8 mphScattered Clouds
5:20 PM69.8 °F59.0 °F68 %29.95 in6.2 miENE (60°)12.7 mphScattered Clouds
5:50 PM69.8 °F59.0 °F68 %29.98 in6.2 miNE (50°)13.8 mphPartly Cloudy
6:20 PM69.8 °F59.0 °F68 %29.98 in6.2 miNE (50°)12.7 mphPartly Cloudy
6:50 PM68.0 °F59.0 °F73 %29.98 in6.2 miENE (60°)15.0 mphPartly Cloudy
7:20 PM68.0 °F59.0 °F73 %29.98 in6.2 miNE (40°)10.4 mphPartly Cloudy
7:50 PM64.4 °F59.0 °F83 %30.01 in6.2 miENE (70°)8.1 mphPartly Cloudy
8:20 PM62.6 °F57.2 °F82 %30.01 inENE (70°)6.9 mphClear
8:50 PM60.8 °F57.2 °F88 %30.01 in6.2 miENE (60°)4.6 mphPartly Cloudy
9:20 PM62.6 °F59.0 °F88 %30.01 inNNE (30°)5.8 mphClear
9:50 PM62.6 °F59.0 °F88 %30.04 inNE (40°)6.9 mphClear
10:20 PM62.6 °F57.2 °F82 %30.04 inNNE (30°)4.6 mphClear
10:50 PM60.8 °F59.0 °F94 %30.04 inNNE (30°)4.6 mphClear
11:20 PM62.6 °F59.0 °F88 %30.04 in5.0 miNNE (30°)4.6 mph
11:50 PM60.8 °F59.0 °F94 %30.04 in3.7 miVariable3.5 mph
Hourly data recorded from EGKK, located miles away from London, England







STORIES FROM OUR PARTNERS